Voltar ao catálogo

METEOR 2-8 DEB

AtivoPO
NORAD 36353·DEBRIS·🇷🇺 Russia

Lançado Mar 25, 1982 de Plesetsk Cosmodrome

Loading…

Próximas Passagens (próximas 24 horas)

TLE

AtualizadoSource: Space-Track

Época: Sep 14, 2026, 12:49 UTC

1 36353U 82025AP  26257.53456169  .00001080  00000-0  53009-3 0  9997
2 36353  82.5412 182.9139 0002661 168.8132 191.3106 14.16975596542589

Acompanhe METEOR 2-8 DEB em tempo real com AllMySat

Download on the App Store